Aeroporto :
LOGIN :

Iscrizione | Disclaimer

   EN    FR    IT 

 










Sommario :    VFR   VFR Marginale   IFR   IFR Intensivo   IFR Molto Intensivo
Visibilità : 
Base nubi : 
>= 8 km
>= 3000ft
5 / 8 km
1000 / 3000 ft
1500m / 5 km
500 / 1000 ft
800 / 1500m
200 / 500 ft
< 800m
< 200 ft
Simboli :   Temporali  Nebbia  Neve Forte  Precipitazioni Forti  Vento > 20 kt
SIGMETs :   Varie  Temporali  Ghiacco  Turbolenza  Onda orograficha  Ceneri Vulcaniche







- Altitudine del aeroporto : 412 ft
- Codice IATA : ORE
- Carte del aeroporto


LFOJ - Orleans

ULTIMO METAR :
  • 132100Z AUTO 06011KT CAVOK M01/M03 Q1014

METARs OBSOLETI :
  • 132030Z AUTO 06012KT CAVOK M00/M02 Q1014
  • 132000Z AUTO 06012KT CAVOK M00/M02 Q1013
  • 131930Z AUTO 06013KT CAVOK M00/M02 Q1013
  • 131900Z AUTO 06012KT CAVOK 00/M02 Q1013
  • 131830Z AUTO 06011KT CAVOK 00/M02 Q1013

TAF TAF LFOJ
Valido dal 13 a 15 ore il 14 a 15 ore UTC


131400Z 1315/1415 07014KT 9999 FEW020
Nessun NOTAM noto per questo aeroporto.



MetMap, La meteo Aeronautica in un colpo d'occhio ! - Copyright ORBIFLY Dicembre 2007 - Disclaimer

ORBIFLY MET'MAP TEAM :

Programmazione e sviluppo : Alexandra Zaïnal
Concezione e sviluppo : Baudouin d'Aumeries
Co-Programmazione e sviluppo : Marc-Olivier Méhu
Supporto tecnico e logistico : Manuel Goepfert
Aiuto per la traduzione : Arnaldo La Scala

Contatto : metmap@orbifly.com




FONTI E CREDITI :

   NOAA